Location: Leipzig
(51.3392°N, 12.3528°E)
Time: 15:56:05
(UTC+02:00)

Tiangong 2 - Visible Passes

Search period start: 24 May 2018 00:00
Search period end: 03 June 2018 00:00
Orbit: 382 x 385 km, 42.8° (Epoch: 24 May)

Date Brightness Start Highest point End Pass type
(mag) Time Alt. Az. Time Alt. Az. Time Alt. Az.
24 May 3.0 23:12:05 10° SW 23:13:18 15° SSW 23:13:18 15° SSW visible
25 May 2.8 22:12:33 10° SW 22:14:42 17° S 22:16:23 12° SE visible
26 May 2.8 22:49:03 10° SW 22:51:10 17° S 22:51:30 16° S visible
27 May 3.6 23:26:20 10° SW 23:26:31 10° SW 23:26:31 10° SW visible
28 May 3.1 22:26:10 10° SW 22:28:01 15° SSW 22:29:18 12° SSE visible
30 May 3.4 22:03:33 10° SW 22:04:48 12° SSW 22:06:03 10° S visible
